CAPE
136 0 8 152 201 443 453 326 151 42 0 23 40 144 341 442 482 117 222 533 265 266 338 709 621 464 827 802 481 422 833 637 151 143 485 541 219 297 270 447 425 199 109
88 46 0 75 298 216 185 119 29 10 15 0 0 10 125 291 498 435 243 258 413 383 297 464 567 466 710 793 699 520 389 363 320 155 166 367 415 166 398 418 353 352 245
93 81 111 195 141 140 104 19 1 1 0 6 0 48 109 203 356 375 345 271 357 475 285 485 468 257 436 746 827 685 519 399 445 429 349 304 267 347 278 294 476 412 290
88 102 82 64 23 27 24 4 0 2 0 0 0 3 86 117 295 225 286 402 339 460 487 548 346 284 284 359 418 758 525 499 377 188 186 113 150 144 131 69 80 77 52
166 122 32 7 23 34 33 23 17 0 0 0 0 36 50 77 115 185 218 226 334 442 539 491 407 343 277 364 242 308 599 655 394 188 130 67 34 76 38 62 72 93 49
137 79 19 9 8 13 77 91 82 49 30 0 20 207 180 168 174 159 152 242 267 361 381 410 388 388 334 313 368 317 210 510 416 173 141 87 95 50 71 77 80 110 96
11 1 0 0 0 24 31 124 146 114 88 69 93 72 91 104 67 81 115 157 209 235 262 326 308 330 347 440 418 344 178 92 171 171 130 192 227 208 157 119 118 128 146
6 5 0 0 4 38 117 202 213 137 96 77 73 40 0 0 0 0 0 81 132 166 160 177 189 207 234 251 232 299 247 252 275 219 161 170 155 107 84 81 91 134 154
57 53 139 91 144 157 151 191 160 124 66 42 86 0 0 0 0 3 4 3 0 31 54 23 35 42 53 130 184 183 256 181 107 168 121 77 101 166 167 176 164 137 138
132 106 103 124 136 180 182 154 132 113 113 37 36 54 0 0 0 0 1 2 2 0 0 0 0 1 0 5 82 119 46 76 104 61 51 63 88 114 147 159 148 115 90
112 97 90 68 66 58 81 96 99 71 40 21 0 1 0 0 0 5 2 0 1 1 3 3 3 5 1 0 31 65 40 23 40 57 135 149 142 158 139 91 80 81 61
72 98 99 89 74 60 81 80 71 78 96 61 20 22 4 0 0 0 1 1 2 1 0 2 1 0 2 11 27 15 6 3 1 12 20 27 28 31 23 12 9 9 8
69 100 120 110 82 74 66 63 30 21 5 0 0 0 39 9 0 0 0 0 2 2 1 1 1 1 0 2 9 4 5 1 0 0 0 1 1 2 3 4 5 2 2
66 84 70 59 109 70 25 22 13 0 0 0 2 2 13 24 7 0 0 1 2 3 1 1 1 2 2 4 7 4 4 1 0 0 0 1 2 2 3 1 0 0 3
41 61 47 115 102 10 4 10 0 0 0 0 4 9 18 36 72 29 0 0 0 0 1 2 1 2 1 1 2 1 3 3 3 2 2 1 1 0 0 0 0 0 0
0 7 17 46 12 3 0 0 0 0 0 2 0 4 18 28 77 105 5 0 0 0 0 2 2 2 2 2 3 1 2 2 1 0 0 0 0 0 0 0 0 2 4
0 0 0 0 0 0 0 0 0 0 0 0 0 0 0 12 24 65 4 0 0 0 0 1 1 1 1 2 0 0 0 0 0 0 0 0 0 0 0 0 1 2 1
0 0 0 0 0 0 0 0 0 0 0 0 0 0 0 0 0 0 0 0 0 0 0 0 2 1 1 1 0 0 0 0 0 0 0 0 0 0 0 0 0 0 0
0 0 0 0 0 0 0 0 0 0 0 0 0 0 0 0 0 0 0 0 0 0 0 0 0 1 2 1 1 0 0 0 0 0 0 0 0 0 0 0 0 0 0
0 0 0 0 0 0 0 0 0 0 0 0 0 0 0 0 0 0 0 0 1 1 2 1 1 1 2 1 0 1 0 0 0 0 0 0 0 0 0 0 0 0 0
0 0 0 0 0 0 0 0 0 0 0 0 0 0 0 0 0 0 0 0 0 1 2 1 0 1 1 1 0 0 0 0 0 0 0 0 0 0 0 0 0 0 0
14 0 0 0 0 0 0 0 0 0 0 0 0 0 0 0 0 0 0 0 0 0 0 0 0 0 0 0 0 0 0 0 0 0 0 0 0 0 0 0 0 0 0
31 1 0 0 0 0 0 0 0 0 0 0 0 0 0 0 0 0 0 0 0 0 0 0 0 0 0 0 0 0 0 0 0 0 0 0 0 0 0 0 0 0 0
42 25 0 0 0 0 0 0 0 0 0 0 0 0 0 0 0 0 0 0 0 0 0 0 0 0 0 0 0 0 0 0 0 0 0 0 0 0 0 0 0 0 0
8 42 0 0 0 0 0 0 0 0 0 0 0 0 0 0 0 0 0 0 0 0 0 0 0 0 0 0 0 0 0 0 0 0 0 0 1 12 0 0 0 0 0
1 23 14 0 0 0 0 0 0 0 0 0 0 0 0 0 0 0 0 0 0 0 0 0 0 0 0 0 0 0 0 0 0 0 0 0 8 2 0 0 0 0 0
CIN
-111 -0 -111 -72 -66 -51 -48 -56 -77 -69 -0 -90 -119 -76 -55 -54 -51 -87 -63 -43 -52 -53 -59 -28 -29 -38 -10 -5 -18 -18 -0 -0 -37 -33 -1 -0 -0 -0 -1 -0 -0 -2 -1
-99 -145 -50 -110 -44 -63 -72 -84 -116 -71 -66 -0 -0 -43 -84 -67 -63 -53 -63 -62 -30 -32 -40 -32 -30 -25 -19 -10 -8 -13 -21 -29 -21 -36 -20 -1 -1 -8 -1 -0 -0 -0 -1
-85 -96 -93 -66 -71 -75 -86 -126 -30 -11 -0 -70 -0 -93 -101 -74 -60 -47 -48 -55 -45 -23 -26 -35 -25 -36 -39 -21 -8 -10 -15 -16 -15 -12 -8 -8 -8 -4 -6 -2 -0 -0 -3
-86 -79 -73 -99 -125 -127 -113 -114 -0 -142 -0 -0 -0 -13 -84 -83 -71 -67 -48 -44 -45 -32 -35 -35 -30 -39 -42 -31 -34 -16 -25 -18 -14 -15 -16 -15 -14 -16 -17 -19 -14 -16 -15
-62 -71 -99 -116 -100 -92 -105 -101 -128 -0 -0 -0 -0 -73 -74 -72 -66 -59 -44 -41 -32 -35 -37 -33 -24 -27 -24 -25 -26 -28 -12 -11 -16 -15 -12 -24 -34 -20 -25 -24 -30 -24 -25
-42 -54 -94 -112 -123 -104 -70 -75 -72 -81 -79 -0 -78 -39 -54 -76 -91 -61 -55 -52 -39 -39 -35 -35 -26 -18 -16 -12 -16 -17 -25 -9 -11 -20 -10 -22 -21 -37 -26 -23 -36 -32 -30
-90 -120 -0 -0 -0 -73 -71 -56 -45 -40 -66 -73 -47 -60 -72 -77 -74 -73 -79 -74 -53 -43 -48 -38 -39 -37 -30 -15 -19 -24 -24 -33 -27 -24 -17 -13 -11 -13 -14 -17 -16 -22 -19
-104 -103 -0 -0 -18 -55 -44 -66 -36 -35 -46 -69 -37 -60 -0 -0 -0 -0 -0 -95 -78 -79 -63 -62 -58 -63 -68 -58 -47 -31 -24 -28 -20 -18 -22 -20 -29 -36 -37 -34 -25 -23 -6
-62 -66 -37 -47 -36 -46 -45 -38 -54 -62 -48 -62 -67 -0 -0 -0 -0 -0 -0 -0 -0 -60 -66 -89 -92 -112 -120 -87 -54 -36 -36 -37 -30 -30 -29 -20 -19 -24 -27 -31 -47 -32 -20
-46 -46 -36 -33 -30 -39 -39 -36 -47 -56 -59 -41 -70 -56 -0 -0 -0 -0 -0 -0 -0 -0 -0 -0 -22 -15 -0 -128 -64 -44 -54 -35 -14 -9 -4 -9 -24 -24 -14 -12 -15 -17 -15
-38 -51 -40 -52 -51 -61 -70 -77 -70 -95 -71 -61 -0 -5 -0 -0 -0 -5 -6 -0 -0 -0 -0 -0 -121 -96 -41 -8 -70 -32 -31 -32 -17 -16 -0 -0 -0 -0 -1 -9 -17 -21 -20
-73 -76 -43 -47 -40 -44 -48 -66 -87 -80 -85 -70 -93 -84 -49 -0 -0 -0 -1 -6 -4 -0 -0 -0 -0 -0 -0 -72 -62 -71 -20 -57 -19 -78 -39 -36 -34 -37 -50 -44 -0 -0 -0
-71 -52 -46 -42 -35 -35 -42 -50 -65 -93 -87 -0 -0 -10 -64 -90 -0 -0 -0 -0 -1 -3 -1 -0 -0 -0 -0 -1 -141 -0 -0 -0 -0 -0 -0 -0 -0 -0 -0 -0 -0 -0 -0
-79 -69 -61 -83 -52 -51 -67 -88 -100 -0 -0 -0 -175 -154 -151 -104 -99 -0 -0 -15 -0 -52 -0 -0 -0 -0 -0 -0 -0 -0 -0 -0 -0 -0 -0 -0 -0 -0 -0 -0 -0 -0 -0
-109 -85 -79 -52 -56 -148 -116 -125 -0 -0 -0 -0 -224 -173 -173 -152 -76 -76 -0 -0 -0 -1 -0 -0 -0 -0 -0 -0 -0 -0 -0 -0 -0 -0 -0 -0 -0 -0 -0 -0 -0 -0 -0
-0 -82 -125 -57 -195 -301 -71 -0 -0 -0 -0 -216 -0 -224 -222 -230 -116 -96 -118 -0 -0 -0 -0 -0 -0 -0 -0 -0 -0 -0 -0 -0 -0 -0 -0 -0 -0 -0 -0 -0 -0 -0 -1
-0 -0 -0 -14 -0 -0 -0 -0 -0 -0 -0 -0 -0 -0 -52 -289 -216 -162 -120 -0 -0 -0 -0 -0 -0 -0 -0 -0 -0 -0 -0 -0 -0 -0 -0 -0 -0 -0 -0 -0 -0 -0 -4
-0 -0 -0 -0 -0 -0 -0 -0 -0 -0 -0 -0 -0 -0 -0 -0 -17 -4 -0 -0 -0 -0 -0 -0 -0 -0 -0 -0 -0 -0 -0 -0 -0 -0 -0 -0 -0 -0 -0 -0 -0 -0 -0
-0 -0 -0 -0 -0 -0 -0 -0 -0 -0 -0 -0 -0 -0 -0 -0 -0 -0 -0 -0 -0 -0 -0 -0 -0 -0 -0 -0 -0 -0 -0 -0 -0 -0 -0 -0 -0 -0 -0 -0 -0 -0 -0
-0 -0 -0 -0 -0 -0 -0 -0 -0 -0 -0 -0 -0 -0 -0 -0 -0 -0 -0 -0 -0 -0 -0 -0 -0 -0 -0 -0 -0 -0 -0 -0 -0 -0 -0 -0 -0 -0 -0 -0 -0 -0 -0
-0 -0 -0 -0 -0 -0 -0 -0 -0 -0 -0 -0 -0 -0 -0 -0 -0 -0 -0 -0 -0 -0 -0 -0 -0 -0 -0 -0 -0 -0 -0 -0 -0 -0 -0 -0 -0 -0 -0 -0 -0 -0 -0
-99 -0 -0 -0 -0 -0 -0 -0 -0 -0 -0 -0 -0 -0 -0 -0 -0 -0 -0 -0 -0 -0 -0 -0 -0 -0 -0 -0 -0 -0 -0 -0 -0 -0 -0 -0 -0 -0 -0 -0 -0 -0 -0
-72 -24 -0 -0 -0 -0 -0 -0 -0 -0 -0 -0 -0 -0 -0 -0 -0 -0 -0 -0 -0 -0 -0 -0 -0 -0 -0 -0 -0 -0 -0 -0 -0 -0 -0 -0 -0 -0 -0 -0 -0 -0 -0
-31 -45 -0 -0 -0 -0 -0 -0 -0 -0 -0 -0 -0 -0 -0 -0 -0 -0 -0 -0 -0 -0 -0 -0 -0 -0 -0 -0 -0 -0 -0 -0 -0 -0 -0 -0 -0 -0 -0 -0 -0 -0 -0
-15 -34 -0 -0 -0 -0 -0 -0 -0 -0 -0 -0 -0 -0 -0 -0 -0 -0 -0 -0 -0 -0 -0 -0 -0 -0 -0 -0 -0 -0 -0 -0 -0 -0 -0 -1 -48 -44 -0 -0 -0 -0 -0
-28 -0 -43 -0 -0 -0 -0 -0 -0 -0 -0 -0 -0 -0 -0 -0 -0 -0 -0 -0 -0 -0 -0 -0 -0 -0 -0 -0 -0 -0 -0 -0 -0 -0 -0 -0 -52 -53 -0 -0 -0 -0 -0
Wind_Speed
2 4 7 11 11 7 9 11 13 15 15 16 15 15 13 13 12 11 9 9 5 4 5 2 4 5 4 4 4 3 3 3 3 3 3 4 4 4 4 5 5 5 4
0 6 5 5 12 9 13 14 13 16 19 18 18 20 19 18 14 9 8 9 7 0 3 4 3 3 2 2 1 1 1 1 1 2 3 3 4 5 6 6 9 9 7
9 9 4 16 24 11 13 17 18 18 20 21 19 20 19 17 18 14 13 8 12 3 4 3 2 1 1 0 1 2 2 2 1 1 3 2 5 6 5 7 9 10 6
8 9 15 17 15 16 14 19 24 27 24 23 19 20 18 19 17 14 16 12 12 9 4 3 5 4 1 1 3 4 5 4 3 4 3 3 4 5 6 8 5 7 12
13 21 26 22 18 19 25 28 27 25 26 23 18 19 19 19 18 19 17 15 12 8 7 6 5 3 3 2 2 3 4 4 5 7 5 7 5 4 7 8 10 16 18
20 26 29 30 30 30 29 25 14 25 22 18 17 22 20 17 17 17 14 15 12 9 7 9 12 10 6 6 5 4 3 3 7 6 2 7 9 12 17 13 10 10 13
26 27 30 33 31 30 28 23 19 25 21 19 19 20 21 21 20 22 19 15 13 11 15 17 18 20 17 5 4 7 6 3 8 9 11 12 18 21 20 15 8 6 2
23 24 23 25 29 27 22 18 15 20 17 14 16 17 18 17 18 21 21 18 15 13 13 16 16 16 13 11 14 16 11 11 12 13 10 16 19 21 24 26 26 9 10
22 21 19 17 13 12 15 16 16 17 17 15 14 15 16 15 14 18 18 18 16 14 14 14 14 15 16 16 16 16 13 14 14 9 12 19 17 18 20 22 21 18 17
16 15 14 14 13 11 14 19 19 18 16 15 17 14 15 14 14 14 16 17 16 15 13 14 13 16 13 15 16 15 15 15 15 14 14 12 14 17 18 18 18 17 18
17 17 18 19 17 18 23 20 16 14 13 15 12 13 12 12 12 12 11 12 15 16 15 12 13 15 13 14 14 13 13 13 14 16 14 13 14 15 16 16 17 18 19
16 17 17 18 18 19 17 14 12 12 10 13 13 11 11 11 6 6 8 9 10 14 14 13 13 12 12 13 13 13 13 14 14 14 14 14 14 15 16 17 18 19 20
17 17 17 16 16 14 14 12 13 13 14 14 15 12 6 6 9 10 11 12 10 10 13 15 13 12 12 13 14 13 14 14 14 13 13 14 15 16 17 18 19 20 20
16 16 16 15 13 13 13 12 13 13 14 14 15 14 8 14 13 12 13 15 16 12 12 13 12 12 13 13 13 14 15 16 15 14 13 14 16 16 17 18 19 20 20
14 18 16 13 12 13 15 14 14 14 13 14 14 14 14 13 12 15 14 15 15 16 16 13 12 12 13 13 13 14 16 16 17 15 14 15 16 16 18 18 19 20 19
13 11 11 12 12 13 14 14 14 14 13 13 13 13 13 13 7 13 14 14 11 11 10 9 11 11 12 13 13 14 15 16 17 17 16 16 16 17 18 19 19 20 19
13 13 12 10 11 12 12 12 13 14 13 13 13 12 12 12 10 9 10 9 8 8 8 9 9 9 11 11 13 14 14 15 15 16 16 16 17 17 17 18 19 19 19
12 11 11 10 11 12 13 12 12 13 12 12 12 11 11 11 11 10 9 8 8 7 7 7 7 8 10 11 12 13 13 15 15 15 16 16 17 17 17 18 19 19 20
11 11 11 10 11 12 12 12 12 12 12 12 12 11 11 11 11 10 9 8 8 8 8 8 7 7 9 9 11 12 12 14 14 15 16 16 16 17 18 18 18 19 19
9 10 11 10 10 11 12 12 11 11 11 12 12 11 11 11 10 10 10 9 8 7 7 7 6 6 8 8 9 9 11 12 13 14 15 15 16 17 18 18 18 19 20
8 9 9 10 9 10 12 11 10 10 10 10 11 11 11 11 11 10 10 9 8 7 6 6 6 6 7 7 7 8 10 10 12 12 12 13 14 16 17 17 18 19 19
7 8 8 8 8 9 8 9 9 9 9 9 10 10 10 11 11 11 10 10 9 8 7 6 6 6 7 8 8 8 8 10 12 10 11 11 11 13 14 15 16 17 19
19 12 7 8 9 8 5 5 7 8 9 11 10 10 10 10 10 10 10 10 10 9 8 7 6 7 7 6 7 8 8 11 12 10 10 11 11 12 13 14 14 15 17
6 18 14 11 9 8 5 4 5 7 8 9 9 9 10 9 9 9 9 10 10 10 10 10 8 8 9 7 7 8 8 11 13 11 9 12 11 12 12 12 11 13 14
5 12 19 14 10 9 7 3 4 6 8 7 10 11 9 8 8 8 9 9 11 12 12 11 10 10 10 9 7 9 9 9 11 11 7 13 12 12 12 13 11 9 11
4 5 16 16 18 10 8 3 4 6 7 9 10 11 11 9 9 9 8 8 9 10 10 10 11 12 12 13 11 10 8 8 10 11 9 9 12 13 15 16 14 10 9
Wind_Direction
132 311 302 288 286 317 309 307 298 294 299 292 291 291 303 302 308 312 317 329 360 126 115 87 105 120 122 123 116 100 93 83 69 63 52 51 61 64 56 28 32 40 71
228 298 308 299 281 298 289 291 305 295 290 293 290 285 288 293 306 321 321 321 323 287 341 152 114 94 123 142 133 140 139 132 44 9 354 358 360 358 356 356 337 341 344
287 289 299 267 249 297 299 287 292 297 294 292 290 292 286 294 299 308 310 322 312 273 189 178 171 144 104 184 249 225 248 244 287 317 329 332 337 335 339 341 331 329 336
286 285 278 277 282 286 295 292 281 277 287 286 291 290 294 296 304 313 311 312 319 313 287 213 192 191 206 189 198 201 202 220 277 288 295 319 328 323 332 337 341 335 327
284 268 259 272 280 281 266 255 270 284 282 284 291 296 296 297 303 303 306 311 314 315 306 302 222 255 264 275 283 223 232 271 287 304 305 320 326 326 331 337 340 331 331
271 259 247 245 244 249 251 274 291 275 283 289 293 287 295 308 309 308 312 310 310 310 308 309 313 308 278 294 302 302 261 272 310 313 282 326 327 328 320 328 336 338 337
252 258 250 239 232 238 255 283 297 265 283 284 293 299 300 304 308 306 315 318 314 311 309 309 306 308 312 293 275 309 309 305 321 327 327 329 316 311 316 328 331 325 245
256 256 252 248 241 252 270 288 301 280 295 307 307 312 311 319 317 315 313 314 319 320 316 316 317 314 319 324 318 318 331 335 339 332 344 320 311 310 310 310 308 309 251
258 259 271 276 293 298 288 291 292 293 299 311 314 317 318 321 330 327 332 331 331 328 328 333 330 327 324 318 320 322 334 330 336 359 338 307 306 320 324 324 327 331 332
278 286 292 292 299 314 296 282 291 299 306 307 308 315 318 325 327 332 336 339 346 342 336 330 340 337 329 328 321 330 335 335 347 357 8 337 326 328 334 338 339 340 344
293 296 286 284 290 286 263 284 304 308 313 310 323 324 330 329 331 335 345 350 342 334 336 343 341 338 352 324 334 352 354 349 352 351 359 354 347 353 350 339 338 343 345
305 295 298 289 284 283 291 308 317 319 331 321 323 335 337 344 23 37 21 15 360 339 344 351 353 345 343 354 3 3 2 3 352 355 351 353 355 355 348 343 341 346 349
300 291 296 297 294 297 304 317 315 317 313 317 320 338 41 59 49 95 94 84 68 359 353 1 355 354 345 348 5 6 15 10 8 358 350 349 354 354 350 348 347 349 352
306 294 298 304 316 300 313 330 325 322 320 322 321 323 27 140 121 104 98 103 95 50 359 33 358 2 10 360 5 10 15 24 24 10 358 356 358 357 354 351 351 352 357
97 178 234 321 318 311 297 314 321 326 332 331 322 311 307 304 117 136 120 116 104 109 104 65 31 15 20 17 18 14 24 31 33 25 10 354 355 353 1 356 357 359 3
56 18 344 319 318 310 312 317 312 329 331 328 318 308 300 300 45 116 121 125 102 78 72 27 7 39 27 16 26 28 28 28 32 36 32 21 17 6 5 6 4 3 7
53 40 9 348 329 328 345 346 327 322 322 318 305 300 305 304 341 45 91 97 76 61 60 16 20 27 17 26 14 13 16 15 18 24 26 22 20 16 15 14 11 10 8
30 35 30 21 352 339 332 334 327 323 319 315 304 310 315 332 357 17 53 62 74 40 50 67 26 5 13 18 24 23 24 27 25 22 22 21 20 21 20 15 10 8 5
25 32 14 19 353 339 338 338 336 331 320 317 311 320 324 345 3 16 29 34 34 34 58 80 53 22 13 25 26 22 27 20 18 19 16 15 14 13 12 12 13 11 9
38 22 10 4 350 339 331 341 346 345 336 325 320 327 337 353 8 17 24 31 34 38 53 65 48 37 19 21 20 30 14 16 15 13 11 16 17 16 16 15 14 14 12
17 9 9 357 349 331 316 329 341 349 351 343 334 336 342 354 6 17 34 38 39 38 41 47 33 8 359 4 10 13 9 14 5 6 11 11 10 13 13 14 15 14 15
354 348 353 2 351 339 332 328 336 335 338 343 345 342 348 354 4 11 17 23 30 48 44 20 5 13 357 353 356 7 6 359 351 5 7 5 14 10 12 12 15 16 15
305 316 327 333 336 342 15 355 332 329 329 318 326 337 347 351 4 12 15 16 13 10 25 17 24 358 357 9 7 356 358 352 351 3 5 360 1 1 4 8 14 15 15
329 293 294 303 317 324 341 9 356 332 323 320 330 340 347 351 358 12 16 12 4 358 358 4 12 10 0 28 26 5 360 350 353 360 6 356 359 357 2 5 11 13 12
340 308 281 281 295 308 315 353 349 329 321 328 317 318 332 346 357 11 8 4 357 352 352 359 2 3 4 6 10 3 356 356 351 354 8 355 357 356 354 353 357 4 10
15 31 273 276 279 292 298 300 315 323 322 319 317 312 318 333 343 349 359 6 358 356 4 6 1 1 1 0 4 355 356 348 348 347 356 353 353 352 346 347 347 353 358